Traverse City, MI

5:47 PM EST on December 10, 2016 (GMT -0500)
Cherry Capital

Weather History for KTVC - March, 2013

Change the Weather History Date:

Saturday, March 30, 2013

  Actual Average Record
Temperature  
Mean Temperature 37 °F 36 °F  
Max Temperature 51 °F 46 °F 75 °F (1938)
Min Temperature 23 °F 27 °F 6 °F (1969)
Degree Days  
Heating Degree Days 28 29  
Month to date heating degree days 1086 1034  
Since 1 July heating degree days 5932 6374  
Cooling Degree Days 0 0  
Month to date cooling degree days 0 0  
Year to date cooling degree days 0 0  
Moisture  
Dew Point 20 °F    
Average Humidity 53    
Maximum Humidity 82    
Minimum Humidity 24    
Precipitation  
Precipitation 0.06 in 0.07 in 1.37 in (1979)
Month to date precipitation 1.50 1.79  
Year to date precipitation 5.04 6.11  
Sea Level Pressure  
Sea Level Pressure 30.05 in    
Wind  
Wind Speed 4 mph (SSW)    
Max Wind Speed 12 mph    
Max Gust Speed 17 mph    
Visibility 10 miles    
Events Rain    
T = Trace of Precipitation, MM = Missing Value Source: NWS Daily Summary

Daily Weather History Graph

Daily Weather History Graph

Search for Another Location

Airport or City:

Trip Planner

Search our weather history database for the weather conditions in past years. The results will help you decide how hot, cold, wet, or windy it might be!

Date:

Astronomy

Mar. 30, 2013 Rise Set
Actual Time 7:26 AM EDT 8:07 PM EDT
Civil Twilight 6:56 AM EDT 8:37 PM EDT
Nautical Twilight 6:22 AM EDT 9:12 PM EDT
Astronomical Twilight 5:45 AM EDT 9:48 PM EDT
Moon No Moon Rise 9:11 AM EDT (3/30)
Length of Visible Light 13h 40m
Length of Day
12h 41m
Waning Gibbous, 86% of the Moon is Illuminated
Mar 30
Waning Gibbous
Apr 3
Last Quarter
Apr 10
New
Apr 18
First Quarter
Apr 25
Full

Hourly Weather History & Observations

Time (EDT) Temp. Windchill Dew Point Humidity Pressure Visibility Wind Dir Wind Speed Gust Speed Precip Events Conditions
12:53 AM 28.0 °F - 19.9 °F 72% 30.22 in 10.0 mi Calm Calm - N/A   Clear
1:53 AM 27.0 °F - 19.9 °F 75% 30.22 in 10.0 mi Calm Calm - N/A   Clear
2:53 AM 27.0 °F - 19.0 °F 72% 30.22 in 10.0 mi Calm Calm - N/A   Clear
3:53 AM 25.0 °F - 19.9 °F 81% 30.21 in 10.0 mi Calm Calm - N/A   Clear
4:53 AM 25.0 °F - 19.0 °F 78% 30.19 in 10.0 mi Calm Calm - N/A   Clear
5:53 AM 25.0 °F - 18.0 °F 75% 30.18 in 10.0 mi Calm Calm - N/A   Clear
6:53 AM 25.0 °F - 17.1 °F 72% 30.17 in 10.0 mi Calm Calm - N/A   Clear
7:53 AM 26.1 °F 21.9 °F 18.0 °F 71% 30.16 in 10.0 mi SSE 3.5 mph - N/A   Partly Cloudy
8:53 AM 30.9 °F - 19.9 °F 64% 30.16 in 10.0 mi Calm Calm - N/A   Partly Cloudy
9:53 AM 39.9 °F 35.1 °F 18.0 °F 41% 30.13 in 10.0 mi SSW 6.9 mph - N/A   Scattered Clouds
10:53 AM 44.1 °F 40.8 °F 17.1 °F 34% 30.10 in 10.0 mi SSE 5.8 mph - N/A   Scattered Clouds
11:53 AM 46.0 °F 42.5 °F 18.0 °F 33% 30.08 in 10.0 mi SW 6.9 mph - N/A   Mostly Cloudy
12:53 PM 48.9 °F - 15.1 °F 26% 30.05 in 10.0 mi South 9.2 mph - N/A   Mostly Cloudy
1:53 PM 48.9 °F - 17.1 °F 28% 30.01 in 10.0 mi SSW 5.8 mph - N/A   Overcast
2:53 PM 50.0 °F - 15.1 °F 25% 29.99 in 10.0 mi SW 8.1 mph - N/A   Overcast
3:53 PM 50.0 °F - 15.1 °F 25% 29.99 in 10.0 mi Variable 4.6 mph - N/A   Overcast
4:53 PM 50.0 °F - 15.1 °F 25% 29.96 in 10.0 mi Variable 5.8 mph - N/A   Overcast
5:53 PM 50.0 °F - 15.1 °F 25% 29.92 in 10.0 mi SSW 4.6 mph - N/A   Overcast
6:53 PM 48.9 °F - 18.0 °F 29% 29.91 in 10.0 mi SW 6.9 mph - N/A   Overcast
7:53 PM 48.0 °F - 19.0 °F 32% 29.89 in 10.0 mi Variable 3.5 mph - N/A   Overcast
8:53 PM 46.9 °F - 19.9 °F 34% 29.88 in 10.0 mi Variable 5.8 mph - N/A   Overcast
9:53 PM 44.1 °F 40.8 °F 35.1 °F 71% 29.87 in 8.0 mi SW 5.8 mph - 0.00 in Rain Light Rain
10:53 PM 42.1 °F 38.4 °F 37.0 °F 82% 29.83 in 5.0 mi South 5.8 mph - 0.02 in Rain Light Rain
11:53 PM 42.1 °F 39.2 °F 37.9 °F 85% 29.81 in 5.0 mi SSW 4.6 mph - 0.01 in Rain Light Rain